Location: Campillo
(40.8621°N, 4.2488°W)
Time: 20:27:57
(UTC+00:00)

Cosmos 1328 Rocket - Visible Passes

Search period start: 19 September 2021 00:00
Search period end: 29 September 2021 00:00
Orbit: 600 x 628 km, 82.5° (Epoch: 19 September)

Date Brightness Start Highest point End Pass type
(mag) Time Alt. Az. Time Alt. Az. Time Alt. Az.
19 Sep 6.5 03:07:46 10° ESE 03:09:23 12° E 03:11:01 10° ENE visible
19 Sep 3.6 04:42:53 13° SSW 04:46:37 55° W 04:50:53 10° N visible
20 Sep 5.9 03:22:32 14° SE 03:24:55 21° E 03:28:12 10° NE visible
20 Sep 4.3 04:59:39 16° SW 05:02:28 30° WNW 05:06:19 10° NNW visible
21 Sep 4.8 03:39:10 30° SE 03:40:32 38° E 03:44:33 10° NNE visible
21 Sep 5.1 05:16:17 13° WSW 05:18:26 17° WNW 05:21:22 10° NNW visible
22 Sep 3.6 03:55:42 63° SE 03:56:13 72° E 04:00:32 10° NNE visible
23 Sep 6.6 02:35:02 11° E 02:35:02 11° E 02:35:44 10° ENE visible
23 Sep 3.5 04:12:08 61° WNW 04:12:08 61° WNW 04:16:17 10° N visible
24 Sep 6.1 02:51:24 18° ENE 02:51:24 18° ENE 02:53:25 10° NE visible
24 Sep 4.4 04:28:29 31° WNW 04:28:29 31° WNW 04:31:46 10° NNW visible
25 Sep 5.7 03:07:42 24° NE 03:07:42 24° NE 03:09:50 10° NNE visible
25 Sep 5.2 04:44:46 18° NW 04:44:46 18° NW 04:46:53 10° NNW visible
26 Sep 5.4 03:23:56 26° NNE 03:23:56 26° NNE 03:25:53 10° NNE visible
27 Sep 5.5 03:40:07 22° N 03:40:07 22° N 03:41:40 10° N visible
28 Sep 5.7 03:56:15 16° NNW 03:56:15 16° NNW 03:57:12 10° N visible
